Lid_Strength_Index
4 4 4 4 4 4 4 4 4 3 2 0 -0 -0 -0 0 -0 -0 -0 -0 -1 -1 -1 -1 -1 -1 1 5 6 0 -1 -1 2 3 3 4 6 8 10 9 9 11 8 7 7 7 7
4 4 4 4 4 4 4 4 4 4 3 1 -0 -0 0 1 1 1 0 -0 -1 -1 -1 -1 -1 -1 3 9 1 -0 -0 1 2 3 3 4 5 5 8 9 10 8 8 8 7 7 7
4 4 4 4 4 4 4 4 4 4 3 2 1 -0 0 1 1 1 1 1 -0 -1 -1 -1 -1 0 4 6 0 -0 1 2 2 4 4 3 3 6 7 10 7 8 11 9 8 8 8
4 4 4 4 4 4 4 4 4 4 3 3 2 1 0 1 1 1 1 0 -0 -1 -1 -1 -1 2 7 -0 -0 0 1 2 2 1 2 2 2 5 7 7 8 11 11 14 10 9 8
4 4 4 5 5 4 4 4 4 4 3 2 2 1 0 0 1 1 1 0 -0 -1 -1 -1 2 4 7 -0 3 2 2 4 2 2 2 2 3 7 7 11 13 11 16 15 13 8 9
4 4 5 5 5 4 4 4 4 4 3 3 2 2 1 1 1 1 1 1 0 0 0 -0 1 7 5 6 3 2 1 2 4 4 5 6 7 10 10 12 17 15 16 16 14 10 10
4 5 5 5 5 5 4 4 4 4 4 3 2 2 1 1 1 1 3 8 9 8 4 7 7 6 5 3 2 3 2 3 4 6 10 8 12 14 13 11 11 12 13 15 13 9 10
4 5 5 5 5 5 4 4 5 4 4 3 3 2 2 1 1 1 6 9 9 6 8 4 5 5 4 3 6 4 2 7 8 11 9 11 13 10 9 9 11 12 13 15 12 9 10
5 5 5 5 6 5 5 4 4 4 4 4 3 3 2 1 1 5 8 8 5 5 8 6 5 6 5 4 7 7 4 6 9 11 11 12 11 8 10 11 12 13 14 14 14 11 11
5 6 5 6 6 5 5 5 5 5 5 4 4 4 3 1 4 7 8 6 5 5 17 10 9 6 5 5 8 4 3 6 9 11 10 11 9 10 11 12 11 15 11 11 12 14 17
6 6 6 6 6 6 5 5 5 5 5 5 5 4 3 2 7 7 6 5 6 9 23 11 9 3 5 8 7 7 3 6 10 11 10 13 11 12 13 12 9 13 11 12 13 14 16
6 6 6 6 6 6 6 5 5 5 5 5 5 4 3 4 4 5 5 5 8 19 22 12 8 9 9 8 8 6 7 5 6 10 9 11 8 10 11 10 9 10 12 12 14 15 20
6 7 7 6 6 6 6 6 5 5 5 5 5 4 4 4 7 4 5 8 19 21 13 13 12 9 10 11 10 9 10 11 13 15 15 12 11 10 9 11 10 11 13 19 20 20 20
6 7 7 6 6 7 7 6 6 5 5 5 5 4 4 4 5 4 7 14 21 17 15 9 10 10 13 11 10 10 11 13 10 11 14 16 17 12 10 12 13 13 13 18 22 21 20
6 6 7 7 7 7 7 6 6 6 5 5 6 9 8 6 4 4 9 20 19 16 10 11 11 13 13 11 11 11 12 12 10 11 14 17 16 10 9 10 11 14 15 13 18 20 22
6 7 7 7 7 7 7 7 6 6 5 6 11 11 10 6 5 5 13 14 15 11 9 10 15 12 15 12 14 13 13 10 11 10 11 14 16 11 10 9 10 12 11 16 15 22 22
6 7 7 7 7 7 7 7 6 6 6 7 12 12 9 7 6 9 17 15 11 9 8 11 13 13 13 13 13 14 13 11 10 10 10 13 14 14 11 13 13 13 14 14 14 17 21
6 7 8 8 8 7 7 7 7 7 7 10 13 15 9 8 10 10 16 12 7 9 9 10 11 12 12 12 14 14 13 12 8 8 12 12 13 16 14 10 9 11 12 13 17 18 19
7 7 8 8 8 8 8 7 7 7 7 12 15 12 8 9 15 16 12 10 9 10 10 10 11 11 11 12 14 13 12 10 8 9 11 10 15 17 16 13 11 13 11 12 12 14 21
7 7 8 8 8 8 8 8 7 8 7 12 14 17 10 9 9 13 13 11 11 8 9 9 11 10 12 12 12 13 13 10 8 8 7 9 14 16 18 16 14 14 13 11 13 16 16
7 7 7 8 8 8 8 8 8 9 7 13 16 16 15 17 12 13 12 10 12 12 9 9 11 11 12 14 13 13 12 12 10 8 9 10 16 17 15 14 13 14 13 13 14 14 16
7 7 8 8 8 8 8 8 8 9 10 16 17 17 16 17 15 15 11 11 11 10 10 11 11 10 11 13 12 13 11 12 12 11 12 12 16 17 19 15 15 15 14 14 12 13 13
7 7 8 8 8 8 8 8 8 9 13 17 17 15 15 16 17 16 14 12 10 8 8 8 10 10 12 11 9 10 9 10 10 11 12 12 14 18 21 16 16 18 15 14 14 12 12
7 7 8 8 8 8 8 8 8 9 12 15 16 16 17 17 17 16 14 12 10 9 10 8 8 10 9 7 8 9 10 10 10 12 11 14 15 17 21 18 24 16 13 12 13 12 11
7 7 8 8 8 8 8 8 8 8 9 14 15 16 18 20 18 17 15 13 10 8 8 9 8 8 7 8 11 12 13 13 12 11 11 12 14 17 20 21 17 15 13 13 13 13 12
7 7 7 8 8 8 8 8 8 8 8 13 15 15 17 19 19 16 16 14 14 13 10 9 8 9 7 10 11 15 16 16 16 14 10 9 11 15 17 20 21 16 12 10 11 16 11
7 7 8 8 8 8 8 8 8 8 8 12 14 14 16 18 17 16 16 15 13 14 14 11 11 9 9 11 13 15 17 15 16 16 14 13 13 16 16 18 16 12 11 10 17 15 10
7 7 7 8 8 8 8 9 8 8 8 12 13 12 14 18 17 15 13 14 13 14 15 11 10 9 9 12 12 13 16 15 16 15 15 15 15 16 15 17 20 11 11 14 11 10 9
7 7 7 8 8 8 8 8 8 8 8 10 13 9 11 13 16 14 12 10 10 10 12 13 11 10 10 10 12 13 14 15 16 17 14 15 13 15 14 14 11 12 10 9 9 9 9